sat.trackr.live / text

‹ back to catalog

INTELSAT 14 (IS-14)

NORAD 36097 · 2009-064A

PAYLOAD ACTIVE UNKNOWN

§ Identity

Operator
Country
ITSO
Launch date
2009-11-23
Launch site
AFETR
Launch vehicle
Mass (kg)
RCS (m²)
25.90

Purposes: comms

External: N2YO · Heavens-Above · Gunter

§ Orbital elements

Epoch: 2026-05-25T03:31:47.300736Z

Period
1,436.11 min
Inclination
0.0084°
Eccentricity
0.0002529
Mean motion
1.00270762 rev/d
Perigee alt
35,776.2 km
Apogee alt
35,797.5 km
Semi-major
42,165.0 km
B*
0.0000e+0
RAAN
300.4126°
Arg perigee
133.0593°
Mean anomaly
177.2184°
Rev number
6,037

§ Raw data

INTELSAT 14 (IS-14)1 36097U 09064A   26145.14707524 -.00000276  00000+0  00000+0 0  99962 36097   0.0084 300.4126 0002529 133.0593 177.2184  1.00270762 60378

JSON: /api/v1/satellites/36097 · /tle

For live sub-satellite position, see the globe view (requires WebGL).

§ Visibility from observer

Set your observer location to see the next 7 days of passes ≥ 10°. The values pass through the URL so the page stays shareable.

No JS? Fill the form by hand. The geolocation button needs JavaScript.